Weather in Miramar

Argentina     38°15′52″S   57°50′19″W
temp.,
°C
wind,
m/s
gust,
m/s
humid.,
%
clouds,
%
prec.,
mm/h
press.,
hPa
HPBL,
m
26 january, tue
tue2600:00+24nnw7106840 0.0 1005144
03:00+20nnw449220 0.0 100597
06:00+20ne11950 0.6 100538
09:00+23n348316 1.3 1006135
12:00+23sse557967 0.0 1004204
15:00+23s438384 0.0 1003240
18:00+23ese4589100 0.0 1003294
21:00+22e3393100 0.0 100544
27 january, wed
wed2700:00+21sw3391100 0.0 100534
03:00+21ssw81091100 0.0 1006564
06:00+19s81091100 0.0 1006523
09:00+18sse788891 0.0 1008566
12:00+19se4483100 0.1 1007432
15:00+20e557790 0.1 1006518
18:00+19e898110 0.0 1004471
21:00+19ese798710 0.0 1005521
28 january, thu
thu2800:00+19ese558369 0.0 1007538
03:00+18nne698850 0.0 1006291
06:00+18ssw228698 0.0 1006267
09:00+20ese448099 0.0 1006532
12:00+20ese888887 0.0 1006378
15:00+20e898893 0.1 1004357
18:00+20e8987100 0.2 1003404
21:00+21ne61086100 0.6 1004258
29 january, fri
fri2900:00+19nne61089100 0.0 1004388
03:00+19nne61192100 1.1 1004528
06:00+20n4795100 1.9 1003297
09:00+22nw4684100 3.7 1003191
12:00+28wnw693962 0.1 1002771
15:00+23s796942 0.1 1001234
18:00+23e447362 0.0 1001132
21:00+22s337164 0.0 100331
30 january, sat
sat3000:00+21w3479100 0.0 100583
03:00+20wsw6881100 0.0 1006397
06:00+20ssw81075100 0.0 1008682
09:00+18w2288100 1.1 1011166
12:00+18se101186100 0.4 1013672
15:00+18se101185100 0.8 1014720
18:00+18se101185100 0.4 1014739
21:00+17se101185100 0.8 1015759